,,,PA_Meas_PMT16A,,PR_Meas_QMR101_102,,RH_Meas_QMH101,,SR_Meas_QMS101,,TA_Meas_QMH101,,GenWind,,GenWind,
date,time,status,PA,status,PR,status,RH,status,SR,status,TA,status,DirAvg,status,SpdAvg,
2009-04-10, 00:00:04,VALID,1003.84,VALID,0,VALID,94.5981,VALID,0,VALID,24.599,VALID,346,VALID,0.261328,
2009-04-10, 00:01:04,VALID,1003.85,VALID,0,VALID,94.6057,VALID,0,VALID,24.5972,VALID,346,VALID,0.1375,
2009-04-10, 00:02:04,VALID,1003.89,VALID,0,VALID,94.5752,VALID,0,VALID,24.5972,VALID,346,VALID,0.25625,
2009-04-10, 00:03:04,VALID,1003.86,VALID,0,VALID,94.4989,VALID,0,VALID,24.5777,VALID,346,VALID,0.294141,
2009-04-10, 00:04:04,VALID,1003.83,VALID,0,VALID,94.4837,VALID,0,VALID,24.5796,VALID,346,VALID,0.292188,
2009-04-10, 00:05:04,VALID,1003.85,VALID,0,VALID,94.4837,VALID,0,VALID,24.5582,VALID,346,VALID,0.453125,
2009-04-10, 00:06:04,VALID,1003.86,VALID,0,VALID,94.4913,VALID,0.100563,VALID,24.5388,VALID,346,VALID,0.508594,
2009-04-10, 00:07:04,VALID,1003.83,VALID,0,VALID,94.5142,VALID,0,VALID,24.5388,VALID,346,VALID,0.473047,
2009-04-10, 00:08:04,VALID,1003.83,VALID,0,VALID,94.5447,VALID,0,VALID,24.5388,VALID,346,VALID,0.465625,
2009-04-10, 00:09:04,VALID,1003.8,VALID,0,VALID,94.5447,VALID,0.100563,VALID,24.5388,VALID,346,VALID,0.425781,
2009-04-10, 00:10:04,VALID,1003.79,VALID,0,VALID,94.5523,VALID,0,VALID,24.5796,VALID,346,VALID,0.353516,
2009-04-10, 00:11:04,VALID,1003.78,VALID,0,VALID,94.5523,VALID,0,VALID,24.5388,VALID,346,VALID,0.451953,
2009-04-10, 00:12:04,VALID,1003.79,VALID,0,VALID,94.6286,VALID,0.100563,VALID,24.599,VALID,346,VALID,0.320703,
2009-04-10, 00:13:04,VALID,1003.76,VALID,0,VALID,94.5676,VALID,0,VALID,24.5582,VALID,346,VALID,0.570703,
2009-04-10, 00:14:04,VALID,1003.74,VALID,0,VALID,94.5523,VALID,0,VALID,24.5582,VALID,346,VALID,0.304297,
2009-04-10, 00:15:04,VALID,1003.74,VALID,0,VALID,94.56,VALID,0,VALID,24.5582,VALID,346,VALID,0.486328,
2009-04-10, 00:16:04,VALID,1003.72,VALID,0,VALID,94.5905,VALID,0.100563,VALID,24.5582,VALID,346,VALID,0.482031,
2009-04-10, 00:17:04,VALID,1003.68,VALID,0,VALID,94.6439,VALID,0,VALID,24.5777,VALID,346,VALID,0.576172,
2009-04-10, 00:18:04,VALID,1003.68,VALID,0,VALID,94.6134,VALID,0,VALID,24.5972,VALID,346,VALID,0.44375,
2009-04-10, 00:19:04,VALID,1003.64,VALID,0,VALID,94.6286,VALID,0,VALID,24.5777,VALID,346,VALID,0.458594,
2009-04-10, 00:20:04,VALID,1003.63,VALID,0,VALID,94.6515,VALID,0,VALID,24.5777,VALID,346,VALID,0.394531,
2009-04-10, 00:21:04,VALID,1003.61,VALID,0,VALID,94.6134,VALID,0,VALID,24.5972,VALID,346,VALID,0.536719,
2009-04-10, 00:22:04,VALID,1003.55,VALID,0,VALID,94.5523,VALID,0,VALID,24.599,VALID,346,VALID,0.647266,
2009-04-10, 00:23:04,VALID,1003.53,VALID,0,VALID,94.5523,VALID,0,VALID,24.5582,VALID,346,VALID,0.349609,
2009-04-10, 00:24:04,VALID,1003.53,VALID,0,VALID,94.56,VALID,0,VALID,24.5388,VALID,346,VALID,0.419922,
2009-04-10, 00:25:04,VALID,1003.49,VALID,0,VALID,94.5066,VALID,0,VALID,24.498,VALID,346,VALID,0.422266,
2009-04-10, 00:26:05,VALID,1003.49,VALID,0,VALID,94.4913,VALID,0.100563,VALID,24.4998,VALID,346,VALID,0.455078,
2009-04-10, 00:27:05,VALID,1003.44,VALID,0,VALID,94.4989,VALID,0,VALID,24.4609,VALID,346,VALID,0.587891,
2009-04-10, 00:28:05,VALID,1003.43,VALID,0,VALID,94.5218,VALID,0,VALID,24.5017,VALID,346,VALID,0.569531,
2009-04-10, 00:29:05,VALID,1003.41,VALID,0,VALID,94.5981,VALID,0.100563,VALID,24.4804,VALID,346,VALID,0.480469,
2009-04-10, 00:30:05,VALID,1003.4,VALID,0,VALID,94.5829,VALID,0.100563,VALID,24.4804,VALID,346,VALID,0.478906,
2009-04-10, 00:31:05,VALID,1003.37,VALID,0,VALID,94.5447,VALID,0,VALID,24.4804,VALID,346,VALID,0.405859,
2009-04-10, 00:32:05,VALID,1003.4,VALID,0,VALID,94.56,VALID,0,VALID,24.4414,VALID,346,VALID,0.327734,
2009-04-10, 00:33:05,VALID,1003.43,VALID,0,VALID,94.5371,VALID,0,VALID,24.4414,VALID,346,VALID,0.400391,
2009-04-10, 00:34:05,VALID,1003.41,VALID,0,VALID,94.5676,VALID,0.100563,VALID,24.4433,VALID,346,VALID,0.403906,
2009-04-10, 00:35:05,VALID,1003.38,VALID,0,VALID,94.56,VALID,0.100563,VALID,24.422,VALID,346,VALID,0.412109,
2009-04-10, 00:36:05,VALID,1003.38,VALID,0,VALID,94.5829,VALID,0.100563,VALID,24.4025,VALID,346,VALID,0.324609,
2009-04-10, 00:37:05,VALID,1003.36,VALID,0,VALID,94.621,VALID,0,VALID,24.4433,VALID,346,VALID,0.269922,
2009-04-10, 00:38:05,VALID,1003.33,VALID,0,VALID,94.5981,VALID,0,VALID,24.422,VALID,346,VALID,0.283203,
2009-04-10, 00:39:05,VALID,1003.32,VALID,0,VALID,94.5752,VALID,0,VALID,24.4238,VALID,346,VALID,0.180469,
2009-04-10, 00:40:05,VALID,1003.3,VALID,0,VALID,94.5905,VALID,0.100563,VALID,24.4238,VALID,346,VALID,0.263672,
2009-04-10, 00:41:05,VALID,1003.31,VALID,0,VALID,94.5829,VALID,0,VALID,24.383,VALID,346,VALID,0.512891,
2009-04-10, 00:42:05,VALID,1003.29,VALID,0,VALID,94.5829,VALID,0,VALID,24.383,VALID,346,VALID,0.413281,
2009-04-10, 00:43:05,VALID,1003.29,VALID,0,VALID,94.5676,VALID,0.100563,VALID,24.3849,VALID,346,VALID,0.482031,
2009-04-10, 00:44:05,VALID,1003.23,VALID,0,VALID,94.5295,VALID,0.100563,VALID,24.3441,VALID,346,VALID,0.280078,
2009-04-10, 00:45:05,VALID,1003.2,VALID,0,VALID,94.56,VALID,0,VALID,24.3246,VALID,346,VALID,0.3375,
2009-04-10, 00:46:05,VALID,1003.19,VALID,0,VALID,94.5905,VALID,0,VALID,24.3246,VALID,346,VALID,0.235938,
2009-04-10, 00:47:05,VALID,1003.17,VALID,0,VALID,94.6515,VALID,0.100563,VALID,24.3441,VALID,346,VALID,0.210938,
2009-04-10, 00:48:05,VALID,1003.15,VALID,0,VALID,94.621,VALID,0.100563,VALID,24.3246,VALID,346,VALID,0,
2009-04-10, 00:49:05,VALID,1003.18,VALID,0,VALID,94.621,VALID,0,VALID,24.3265,VALID,346,VALID,0,
2009-04-10, 00:50:05,VALID,1003.18,VALID,0,VALID,94.6439,VALID,0,VALID,24.3265,VALID,346,VALID,0.251563,
2009-04-10, 00:51:05,VALID,1003.21,VALID,0,VALID,94.6057,VALID,0.100563,VALID,24.3246,VALID,346,VALID,0.407422,
2009-04-10, 00:52:05,VALID,1003.26,VALID,0,VALID,94.5523,VALID,0,VALID,24.2662,VALID,346,VALID,0.374609,
2009-04-10, 00:53:05,VALID,1003.27,VALID,0,VALID,94.5676,VALID,0,VALID,24.2662,VALID,346,VALID,0.301562,
2009-04-10, 00:54:05,VALID,1003.28,VALID,0,VALID,94.5905,VALID,0,VALID,24.2468,VALID,346,VALID,0.351953,
2009-04-10, 00:55:05,VALID,1003.28,VALID,0,VALID,94.5829,VALID,0.100563,VALID,24.2468,VALID,346,VALID,0.260156,
2009-04-10, 00:56:05,VALID,1003.27,VALID,0,VALID,94.6363,VALID,0,VALID,24.2486,VALID,346,VALID,0.308203,
2009-04-10, 00:57:05,VALID,1003.26,VALID,0,VALID,94.6744,VALID,0,VALID,24.2468,VALID,346,VALID,0.348828,
2009-04-10, 00:58:05,VALID,1003.26,VALID,0,VALID,94.6744,VALID,0.100563,VALID,24.2468,VALID,346,VALID,0.125391,
2009-04-10, 00:59:05,VALID,1003.21,VALID,0,VALID,94.7812,VALID,0,VALID,24.2662,VALID,346,VALID,0,
2009-04-10, 01:00:05,VALID,1003.19,VALID,0,VALID,94.8194,VALID,0.100563,VALID,24.3636,VALID,346,VALID,0,
2009-04-10, 01:01:05,VALID,1003.17,VALID,0,VALID,94.827,VALID,0.100563,VALID,24.3636,VALID,346,VALID,0.303125,
2009-04-10, 01:02:05,VALID,1003.18,VALID,0,VALID,94.8194,VALID,0,VALID,24.3636,VALID,346,VALID,0.353516,
2009-04-10, 01:03:05,VALID,1003.15,VALID,0,VALID,94.7507,VALID,0,VALID,24.3441,VALID,346,VALID,0.204297,
2009-04-10, 01:04:05,VALID,1003.16,VALID,0,VALID,94.7125,VALID,0,VALID,24.3441,VALID,346,VALID,0.285547,
2009-04-10, 01:05:05,VALID,1003.14,VALID,0,VALID,94.7202,VALID,0,VALID,24.3459,VALID,346,VALID,0.323438,
2009-04-10, 01:06:05,VALID,1003.1,VALID,0,VALID,94.6668,VALID,0,VALID,24.3265,VALID,346,VALID,0.291797,
2009-04-10, 01:07:05,VALID,1003.1,VALID,0,VALID,94.682,VALID,0,VALID,24.3052,VALID,346,VALID,0.198437,
2009-04-10, 01:08:05,VALID,1003.09,VALID,0,VALID,94.6973,VALID,0.100563,VALID,24.2857,VALID,346,VALID,0,
2009-04-10, 01:09:05,VALID,1003.1,VALID,0,VALID,94.6973,VALID,0,VALID,24.3052,VALID,346,VALID,0.108984,
2009-04-10, 01:10:05,VALID,1003.09,VALID,0,VALID,94.6744,VALID,0,VALID,24.2875,VALID,346,VALID,0.124609,
2009-04-10, 01:11:05,VALID,1003.08,VALID,0,VALID,94.6591,VALID,0,VALID,24.2662,VALID,346,VALID,0.219141,
2009-04-10, 01:12:05,VALID,1003.06,VALID,0,VALID,94.6439,VALID,0,VALID,24.2468,VALID,346,VALID,0.366797,
2009-04-10, 01:13:05,VALID,1003.04,VALID,0,VALID,94.6591,VALID,0,VALID,24.2468,VALID,346,VALID,0.340234,
2009-04-10, 01:14:05,VALID,1003.05,VALID,0,VALID,94.7202,VALID,0,VALID,24.2468,VALID,346,VALID,0.49375,
2009-04-10, 01:15:05,VALID,1002.99,VALID,0,VALID,94.7583,VALID,0.100563,VALID,24.2662,VALID,346,VALID,0.488281,
2009-04-10, 01:16:05,VALID,1003,VALID,0,VALID,94.7812,VALID,0.100563,VALID,24.307,VALID,346,VALID,0.382813,
2009-04-10, 01:17:05,VALID,1002.99,VALID,0,VALID,94.7736,VALID,0,VALID,24.2662,VALID,346,VALID,0.425391,
2009-04-10, 01:18:05,VALID,1002.99,VALID,0,VALID,94.766,VALID,0.100563,VALID,24.2857,VALID,346,VALID,0.476172,
2009-04-10, 01:19:05,VALID,1002.99,VALID,0,VALID,94.7888,VALID,0.100563,VALID,24.2857,VALID,346,VALID,0.435547,
2009-04-10, 01:20:05,VALID,1002.94,VALID,0,VALID,94.7431,VALID,0,VALID,24.2857,VALID,346,VALID,0.495703,
2009-04-10, 01:21:05,VALID,1002.96,VALID,0,VALID,94.7507,VALID,0,VALID,24.2857,VALID,346,VALID,0.560156,
2009-04-10, 01:22:05,VALID,1002.93,VALID,0,VALID,94.7888,VALID,0,VALID,24.3052,VALID,346,VALID,0.483984,
2009-04-10, 01:23:05,VALID,1002.91,VALID,0,VALID,94.8041,VALID,0,VALID,24.3052,VALID,346,VALID,0.420312,
2009-04-10, 01:24:05,VALID,1002.92,VALID,0,VALID,94.7888,VALID,0,VALID,24.2839,VALID,346,VALID,0.49375,
2009-04-10, 01:25:05,VALID,1002.91,VALID,0,VALID,94.7965,VALID,0,VALID,24.2857,VALID,346,VALID,0.45,
2009-04-10, 01:26:05,VALID,1002.91,VALID,0,VALID,94.8194,VALID,0,VALID,24.3246,VALID,346,VALID,0.476953,
2009-04-10, 01:27:05,VALID,1002.93,VALID,0,VALID,94.8194,VALID,0,VALID,24.3246,VALID,346,VALID,0.432031,
2009-04-10, 01:28:05,VALID,1002.92,VALID,0,VALID,94.8346,VALID,0,VALID,24.3636,VALID,346,VALID,0.398828,
2009-04-10, 01:29:05,VALID,1002.89,VALID,0,VALID,94.8422,VALID,0,VALID,24.3636,VALID,346,VALID,0.294531,
2009-04-10, 01:30:05,VALID,1002.9,VALID,0,VALID,94.8194,VALID,0.100563,VALID,24.4043,VALID,346,VALID,0.340625,
2009-04-10, 01:31:05,VALID,1002.89,VALID,0,VALID,94.8499,VALID,0,VALID,24.4025,VALID,346,VALID,0.442578,
2009-04-10, 01:32:05,VALID,1002.84,VALID,0,VALID,94.8499,VALID,0,VALID,24.422,VALID,346,VALID,0.538672,
2009-04-10, 01:33:05,VALID,1002.83,VALID,0,VALID,94.827,VALID,0,VALID,24.422,VALID,346,VALID,0.480078,
2009-04-10, 01:34:05,VALID,1002.8,VALID,0,VALID,94.8499,VALID,0.100563,VALID,24.4006,VALID,346,VALID,0.497266,
2009-04-10, 01:35:05,VALID,1002.76,VALID,0,VALID,94.8041,VALID,0,VALID,24.4025,VALID,347,VALID,0.630078,
2009-04-10, 01:36:05,VALID,1002.73,VALID,0,VALID,94.7812,VALID,0,VALID,24.383,VALID,347,VALID,0.363281,
2009-04-10, 01:37:05,VALID,1002.71,VALID,0,VALID,94.7965,VALID,0,VALID,24.383,VALID,347,VALID,0.336719,
2009-04-10, 01:38:05,VALID,1002.71,VALID,0,VALID,94.7965,VALID,0,VALID,24.4025,VALID,347,VALID,0.491406,
2009-04-10, 01:39:05,VALID,1002.71,VALID,0,VALID,94.7812,VALID,0,VALID,24.4025,VALID,347,VALID,0.448438,
2009-04-10, 01:40:05,VALID,1002.73,VALID,0,VALID,94.8041,VALID,0,VALID,24.422,VALID,347,VALID,0.660937,
2009-04-10, 01:41:05,VALID,1002.68,VALID,0,VALID,94.7965,VALID,0,VALID,24.4238,VALID,347,VALID,0.542578,
2009-04-10, 01:42:05,VALID,1002.73,VALID,0,VALID,94.766,VALID,0,VALID,24.4025,VALID,347,VALID,0.637891,
2009-04-10, 01:43:05,VALID,1002.66,VALID,0,VALID,94.7812,VALID,0.100563,VALID,24.4025,VALID,348,VALID,0.658203,
2009-04-10, 01:44:05,VALID,1002.69,VALID,0,VALID,94.7888,VALID,0.100563,VALID,24.4025,VALID,354,VALID,0.587891,
2009-04-10, 01:45:05,VALID,1002.66,VALID,0,VALID,94.7965,VALID,0.100563,VALID,24.422,VALID,351,VALID,0.748438,
2009-04-10, 01:46:05,VALID,1002.64,VALID,0,VALID,94.8041,VALID,0.100563,VALID,24.4238,VALID,353,VALID,0.590234,
2009-04-10, 01:47:05,VALID,1002.62,VALID,0,VALID,94.7812,VALID,0,VALID,24.4025,VALID,353,VALID,0.544141,
2009-04-10, 01:48:05,VALID,1002.64,VALID,0,VALID,94.7736,VALID,0,VALID,24.422,VALID,357,VALID,0.565234,
2009-04-10, 01:49:05,VALID,1002.62,VALID,0,VALID,94.7888,VALID,0,VALID,24.4609,VALID,357,VALID,0.607813,
2009-04-10, 01:50:05,VALID,1002.61,VALID,0,VALID,94.7965,VALID,0,VALID,24.4804,VALID,356,VALID,0.351953,
2009-04-10, 01:51:05,VALID,1002.63,VALID,0,VALID,94.766,VALID,0,VALID,24.4998,VALID,356,VALID,0.331641,
2009-04-10, 01:52:05,VALID,1002.61,VALID,0,VALID,94.7125,VALID,0,VALID,24.4804,VALID,356,VALID,0,
2009-04-10, 01:53:05,VALID,1002.6,VALID,0,VALID,94.7049,VALID,0.100563,VALID,24.4804,VALID,356,VALID,0,
2009-04-10, 01:54:05,VALID,1002.59,VALID,0,VALID,94.6668,VALID,0.100563,VALID,24.5017,VALID,356,VALID,0,
2009-04-10, 01:55:05,VALID,1002.55,VALID,0,VALID,94.6591,VALID,0.100563,VALID,24.4804,VALID,356,VALID,0,
2009-04-10, 01:56:05,VALID,1002.54,VALID,0,VALID,94.6439,VALID,0.100563,VALID,24.4804,VALID,356,VALID,0,
2009-04-10, 01:57:05,VALID,1002.52,VALID,0,VALID,94.6515,VALID,0,VALID,24.4804,VALID,356,VALID,0,
2009-04-10, 01:58:05,VALID,1002.48,VALID,0,VALID,94.6515,VALID,0,VALID,24.4804,VALID,356,VALID,0,
2009-04-10, 01:59:05,VALID,1002.48,VALID,0,VALID,94.5905,VALID,0,VALID,24.4609,VALID,356,VALID,0,
2009-04-10, 02:00:05,VALID,1002.47,VALID,0,VALID,94.6591,VALID,0,VALID,24.4609,VALID,356,VALID,0.405469,
2009-04-10, 02:01:05,VALID,1002.46,VALID,0,VALID,94.6515,VALID,0,VALID,24.4609,VALID,356,VALID,0.490234,
2009-04-10, 02:02:05,VALID,1002.43,VALID,0,VALID,94.6363,VALID,0,VALID,24.4609,VALID,356,VALID,0.541797,
2009-04-10, 02:03:05,VALID,1002.41,VALID,0,VALID,94.6363,VALID,0,VALID,24.4804,VALID,356,VALID,0.389453,
2009-04-10, 02:04:05,VALID,1002.4,VALID,0,VALID,94.6057,VALID,0.100563,VALID,24.4822,VALID,356,VALID,0.489844,
2009-04-10, 02:05:05,VALID,1002.37,VALID,0,VALID,94.621,VALID,0,VALID,24.4804,VALID,356,VALID,0.533594,
2009-04-10, 02:06:05,VALID,1002.35,VALID,0,VALID,94.6134,VALID,0,VALID,24.4822,VALID,356,VALID,0.535547,
2009-04-10, 02:07:05,VALID,1002.38,VALID,0,VALID,94.6134,VALID,0,VALID,24.4609,VALID,356,VALID,0.421484,
2009-04-10, 02:08:05,VALID,1002.37,VALID,0,VALID,94.6057,VALID,0,VALID,24.4414,VALID,356,VALID,0.509766,
2009-04-10, 02:09:05,VALID,1002.38,VALID,0,VALID,94.6134,VALID,0,VALID,24.4609,VALID,356,VALID,0.415625,
2009-04-10, 02:10:05,VALID,1002.4,VALID,0,VALID,94.6744,VALID,0,VALID,24.4609,VALID,356,VALID,0.273438,
2009-04-10, 02:11:05,VALID,1002.38,VALID,0,VALID,94.7202,VALID,0,VALID,24.4804,VALID,356,VALID,0.352344,
2009-04-10, 02:12:05,VALID,1002.38,VALID,0,VALID,94.7507,VALID,0,VALID,24.4998,VALID,356,VALID,0.400781,
2009-04-10, 02:13:05,VALID,1002.35,VALID,0,VALID,94.682,VALID,0.100563,VALID,24.5193,VALID,356,VALID,0.0304688,
2009-04-10, 02:14:05,VALID,1002.39,VALID,0,VALID,94.6591,VALID,0,VALID,24.5212,VALID,356,VALID,0.00195313,
2009-04-10, 02:15:05,VALID,1002.35,VALID,0,VALID,94.6363,VALID,0,VALID,24.5193,VALID,356,VALID,0.0933594,
2009-04-10, 02:16:05,VALID,1002.35,VALID,0,VALID,94.621,VALID,0,VALID,24.5193,VALID,356,VALID,0.305859,
2009-04-10, 02:17:05,VALID,1002.34,VALID,0,VALID,94.5523,VALID,0,VALID,24.4804,VALID,358,VALID,0.422656,
2009-04-10, 02:18:05,VALID,1002.34,VALID,0,VALID,94.5447,VALID,0,VALID,24.5017,VALID,358,VALID,0.353906,
2009-04-10, 02:19:05,VALID,1002.3,VALID,0,VALID,94.5447,VALID,0,VALID,24.4822,VALID,358,VALID,0.381641,
2009-04-10, 02:20:05,VALID,1002.3,VALID,0,VALID,94.56,VALID,0,VALID,24.4414,VALID,358,VALID,0.226953,
2009-04-10, 02:21:05,VALID,1002.3,VALID,0,VALID,94.5752,VALID,0,VALID,24.4609,VALID,358,VALID,0,
2009-04-10, 02:22:05,VALID,1002.31,VALID,0,VALID,94.5752,VALID,0,VALID,24.4804,VALID,358,VALID,0.00117188,
2009-04-10, 02:23:05,VALID,1002.29,VALID,0,VALID,94.5676,VALID,0,VALID,24.4609,VALID,358,VALID,0.105469,
2009-04-10, 02:24:05,VALID,1002.32,VALID,0,VALID,94.5447,VALID,0,VALID,24.4628,VALID,358,VALID,0.185547,
2009-04-10, 02:25:05,VALID,1002.3,VALID,0,VALID,94.5523,VALID,0,VALID,24.4414,VALID,358,VALID,0,
2009-04-10, 02:26:05,VALID,1002.3,VALID,0,VALID,94.5447,VALID,0,VALID,24.4628,VALID,358,VALID,0,
2009-04-10, 02:27:05,VALID,1002.3,VALID,0,VALID,94.5218,VALID,0,VALID,24.4628,VALID,358,VALID,0.00117188,
2009-04-10, 02:28:05,VALID,1002.3,VALID,0,VALID,94.5142,VALID,0,VALID,24.4433,VALID,358,VALID,0,
2009-04-10, 02:29:05,VALID,1002.28,VALID,0,VALID,94.5295,VALID,0,VALID,24.422,VALID,358,VALID,0,
2009-04-10, 02:30:05,VALID,1002.26,VALID,0,VALID,94.5447,VALID,0,VALID,24.422,VALID,358,VALID,0,
2009-04-10, 02:31:05,VALID,1002.29,VALID,0,VALID,94.5981,VALID,0.100563,VALID,24.4414,VALID,358,VALID,0.176172,
2009-04-10, 02:32:05,VALID,1002.27,VALID,0,VALID,94.682,VALID,0,VALID,24.4822,VALID,358,VALID,0.35,
2009-04-10, 02:33:05,VALID,1002.32,VALID,0,VALID,94.6591,VALID,0,VALID,24.4804,VALID,358,VALID,0.311328,
2009-04-10, 02:34:05,VALID,1002.3,VALID,0,VALID,94.621,VALID,0,VALID,24.5017,VALID,358,VALID,0.196484,
2009-04-10, 02:35:05,VALID,1002.34,VALID,0,VALID,94.5752,VALID,0,VALID,24.5017,VALID,358,VALID,0.164063,
2009-04-10, 02:36:05,VALID,1002.35,VALID,0,VALID,94.56,VALID,0,VALID,24.4822,VALID,358,VALID,0.234766,
2009-04-10, 02:37:05,VALID,1002.35,VALID,0,VALID,94.5829,VALID,0,VALID,24.4822,VALID,358,VALID,0.0710938,
2009-04-10, 02:38:05,VALID,1002.34,VALID,0,VALID,94.5676,VALID,0,VALID,24.5017,VALID,358,VALID,0.225391,
2009-04-10, 02:39:05,VALID,1002.35,VALID,0,VALID,94.5752,VALID,0,VALID,24.4609,VALID,358,VALID,0.338672,
2009-04-10, 02:40:05,VALID,1002.34,VALID,0,VALID,94.5676,VALID,0,VALID,24.4822,VALID,358,VALID,0.330859,
2009-04-10, 02:41:05,VALID,1002.32,VALID,0,VALID,94.5752,VALID,0.100563,VALID,24.5035,VALID,358,VALID,0.454297,
2009-04-10, 02:42:05,VALID,1002.35,VALID,0,VALID,94.5676,VALID,0,VALID,24.4804,VALID,358,VALID,0.558594,
2009-04-10, 02:43:05,VALID,1002.3,VALID,0,VALID,94.5981,VALID,0,VALID,24.5017,VALID,356,VALID,0.51875,
2009-04-10, 02:44:05,VALID,1002.31,VALID,0,VALID,94.5981,VALID,0,VALID,24.5017,VALID,356,VALID,0.583594,
2009-04-10, 02:45:05,VALID,1002.3,VALID,0,VALID,94.5981,VALID,0,VALID,24.5017,VALID,356,VALID,0.542969,
2009-04-10, 02:46:05,VALID,1002.32,VALID,0,VALID,94.5905,VALID,0,VALID,24.5017,VALID,356,VALID,0.516797,
2009-04-10, 02:47:05,VALID,1002.34,VALID,0,VALID,94.6286,VALID,0,VALID,24.5212,VALID,356,VALID,0.567969,
2009-04-10, 02:48:05,VALID,1002.34,VALID,0,VALID,94.6057,VALID,0,VALID,24.4804,VALID,356,VALID,0.503516,
2009-04-10, 02:49:05,VALID,1002.35,VALID,0,VALID,94.6057,VALID,0,VALID,24.4998,VALID,356,VALID,0.437109,
2009-04-10, 02:50:05,VALID,1002.36,VALID,0,VALID,94.5981,VALID,0,VALID,24.4822,VALID,356,VALID,0.368359,
2009-04-10, 02:51:05,VALID,1002.38,VALID,0,VALID,94.5905,VALID,0,VALID,24.5017,VALID,356,VALID,0.251563,
2009-04-10, 02:52:05,VALID,1002.36,VALID,0,VALID,94.6057,VALID,0,VALID,24.4804,VALID,356,VALID,0.221875,
2009-04-10, 02:53:05,VALID,1002.35,VALID,0,VALID,94.6363,VALID,0.100563,VALID,24.4804,VALID,356,VALID,0,
2009-04-10, 02:54:05,VALID,1002.33,VALID,0,VALID,94.621,VALID,0,VALID,24.5017,VALID,356,VALID,0,
2009-04-10, 02:55:05,VALID,1002.33,VALID,0,VALID,94.621,VALID,0,VALID,24.4804,VALID,356,VALID,0,
2009-04-10, 02:56:05,VALID,1002.31,VALID,0,VALID,94.621,VALID,0,VALID,24.4822,VALID,356,VALID,0,
2009-04-10, 02:57:05,VALID,1002.32,VALID,0,VALID,94.6057,VALID,0,VALID,24.4804,VALID,356,VALID,0.100781,
2009-04-10, 02:58:05,VALID,1002.31,VALID,0,VALID,94.6057,VALID,0.100563,VALID,24.4609,VALID,356,VALID,0,
2009-04-10, 02:59:05,VALID,1002.3,VALID,0,VALID,94.6057,VALID,0,VALID,24.4609,VALID,356,VALID,0.214844,
2009-04-10, 03:00:05,VALID,1002.34,VALID,0,VALID,94.5981,VALID,0,VALID,24.4414,VALID,356,VALID,0.147266,
2009-04-10, 03:01:05,VALID,1002.33,VALID,0,VALID,94.5905,VALID,0,VALID,24.4414,VALID,356,VALID,0,
2009-04-10, 03:02:05,VALID,1002.33,VALID,0,VALID,94.6057,VALID,0,VALID,24.4025,VALID,356,VALID,0,
2009-04-10, 03:03:05,VALID,1002.32,VALID,0,VALID,94.5676,VALID,0,VALID,24.4025,VALID,356,VALID,0,
2009-04-10, 03:04:05,VALID,1002.31,VALID,0,VALID,94.5905,VALID,0,VALID,24.4238,VALID,356,VALID,0,
2009-04-10, 03:05:05,VALID,1002.33,VALID,0,VALID,94.5981,VALID,0.100563,VALID,24.383,VALID,356,VALID,0,
2009-04-10, 03:06:05,VALID,1002.32,VALID,0,VALID,94.6439,VALID,0,VALID,24.383,VALID,356,VALID,0,
2009-04-10, 03:07:05,VALID,1002.32,VALID,0,VALID,94.6591,VALID,0,VALID,24.4238,VALID,356,VALID,0.248828,
2009-04-10, 03:08:04,VALID,1002.3,VALID,0,VALID,94.6134,VALID,0,VALID,24.4025,VALID,356,VALID,0.290625,
2009-04-10, 03:09:04,VALID,1002.31,VALID,0,VALID,94.6363,VALID,0,VALID,24.4043,VALID,356,VALID,0.374219,
2009-04-10, 03:10:04,VALID,1002.32,VALID,0,VALID,94.6134,VALID,0,VALID,24.4043,VALID,356,VALID,0.421875,
2009-04-10, 03:11:04,VALID,1002.27,VALID,0,VALID,94.6134,VALID,0.100563,VALID,24.4025,VALID,356,VALID,0.447266,
2009-04-10, 03:12:04,VALID,1002.29,VALID,0,VALID,94.6134,VALID,0.100563,VALID,24.4043,VALID,356,VALID,0.477344,
2009-04-10, 03:13:04,VALID,1002.29,VALID,0,VALID,94.5829,VALID,0,VALID,24.383,VALID,357,VALID,0.581641,
2009-04-10, 03:14:04,VALID,1002.27,VALID,0,VALID,94.5676,VALID,0,VALID,24.3654,VALID,357,VALID,0.390234,
2009-04-10, 03:15:04,VALID,1002.29,VALID,0,VALID,94.5447,VALID,0,VALID,24.3441,VALID,357,VALID,0.220703,
2009-04-10, 03:16:04,VALID,1002.25,VALID,0,VALID,94.5676,VALID,0.100563,VALID,24.3246,VALID,357,VALID,0,
2009-04-10, 03:17:04,VALID,1002.26,VALID,0,VALID,94.5905,VALID,0,VALID,24.3246,VALID,357,VALID,0.0609375,
2009-04-10, 03:18:04,VALID,1002.23,VALID,0,VALID,94.6363,VALID,0,VALID,24.3459,VALID,357,VALID,0,
2009-04-10, 03:19:04,VALID,1002.22,VALID,0,VALID,94.6057,VALID,0,VALID,24.3459,VALID,357,VALID,0.00234375,
2009-04-10, 03:20:04,VALID,1002.23,VALID,0,VALID,94.6363,VALID,0,VALID,24.3459,VALID,357,VALID,0,
2009-04-10, 03:21:04,VALID,1002.22,VALID,0,VALID,94.6363,VALID,0,VALID,24.3246,VALID,357,VALID,0,
2009-04-10, 03:22:04,VALID,1002.21,VALID,0,VALID,94.6439,VALID,0.100563,VALID,24.3459,VALID,357,VALID,0,
2009-04-10, 03:23:04,VALID,1002.22,VALID,0,VALID,94.6591,VALID,0,VALID,24.3441,VALID,357,VALID,0,
2009-04-10, 03:24:04,VALID,1002.21,VALID,0,VALID,94.6515,VALID,0,VALID,24.3441,VALID,357,VALID,0,
2009-04-10, 03:25:04,VALID,1002.2,VALID,0,VALID,94.6591,VALID,0,VALID,24.383,VALID,357,VALID,0,
2009-04-10, 03:26:04,VALID,1002.16,VALID,0,VALID,94.6439,VALID,0,VALID,24.3636,VALID,357,VALID,0.0257812,
2009-04-10, 03:27:04,VALID,1002.17,VALID,0,VALID,94.6286,VALID,0.100563,VALID,24.3636,VALID,357,VALID,0,
2009-04-10, 03:28:04,VALID,1002.14,VALID,0,VALID,94.621,VALID,0,VALID,24.3849,VALID,357,VALID,0.421094,
2009-04-10, 03:29:04,VALID,1002.14,VALID,0,VALID,94.6363,VALID,0,VALID,24.3654,VALID,357,VALID,0.328516,
2009-04-10, 03:30:04,VALID,1002.11,VALID,0,VALID,94.6134,VALID,0.100563,VALID,24.3441,VALID,357,VALID,0.246875,
2009-04-10, 03:31:04,VALID,1002.1,VALID,0,VALID,94.6363,VALID,0,VALID,24.3246,VALID,357,VALID,0.223047,
2009-04-10, 03:32:04,VALID,1002.09,VALID,0,VALID,94.6057,VALID,0.100563,VALID,24.3033,VALID,357,VALID,0.367969,
2009-04-10, 03:33:04,VALID,1002.09,VALID,0,VALID,94.621,VALID,0,VALID,24.3441,VALID,357,VALID,0.246094,
2009-04-10, 03:34:04,VALID,1002.1,VALID,0,VALID,94.6134,VALID,0.100563,VALID,24.3246,VALID,357,VALID,0.351953,
2009-04-10, 03:35:04,VALID,1002.12,VALID,0,VALID,94.621,VALID,0.100563,VALID,24.3246,VALID,357,VALID,0.358203,
2009-04-10, 03:36:04,VALID,1002.12,VALID,0,VALID,94.621,VALID,0,VALID,24.3052,VALID,357,VALID,0.237109,
2009-04-10, 03:37:04,VALID,1002.12,VALID,0,VALID,94.6515,VALID,0,VALID,24.3265,VALID,357,VALID,0.111328,
2009-04-10, 03:38:04,VALID,1002.12,VALID,0,VALID,94.6515,VALID,0.100563,VALID,24.3246,VALID,357,VALID,0.125391,
2009-04-10, 03:39:04,VALID,1002.13,VALID,0,VALID,94.6744,VALID,0,VALID,24.3459,VALID,357,VALID,0.117578,
2009-04-10, 03:40:04,VALID,1002.14,VALID,0,VALID,94.682,VALID,0.100563,VALID,24.3246,VALID,357,VALID,0.188672,
2009-04-10, 03:41:04,VALID,1002.12,VALID,0,VALID,94.682,VALID,0,VALID,24.3246,VALID,357,VALID,0.127344,
2009-04-10, 03:42:04,VALID,1002.15,VALID,0,VALID,94.682,VALID,0,VALID,24.3246,VALID,357,VALID,0.0351563,
2009-04-10, 03:43:04,VALID,1002.15,VALID,0,VALID,94.682,VALID,0,VALID,24.3246,VALID,357,VALID,0.0773437,